| time (UTC) | temp F | wind direction | speed MPH | gust MPH | rain 1hr in | rain 24hr in | rain mn in | humidity % | barometer mb |
| 20260505163004 | 80 | 213 | 14.0 | 25.0 | 0.00 | 0.00 | 0.00 | 41 | 1009.2 |
| 20260505162004 | 81 | 230 | 12.0 | 23.0 | 0.00 | 0.00 | 0.00 | 41 | 1009.3 |
| 20260505161005 | 80 | 230 | 11.0 | 22.0 | 0.00 | 0.00 | 0.00 | 43 | 1009.4 |
| 20260505153004 | 79 | 232 | 10.0 | 20.0 | 0.00 | 0.00 | 0.00 | 45 | 1009.4 |
| 20260505152004 | 78 | 217 | 10.0 | 21.0 | 0.00 | 0.00 | 0.00 | 46 | 1009.5 |
| 20260505151004 | 78 | 225 | 12.0 | 22.0 | 0.00 | 0.00 | 0.00 | 47 | 1009.5 |
| 20260505125004 | 66 | 203 | 7.0 | 12.0 | 0.00 | 0.00 | 0.00 | 65 | 1010.6 |
| 20260505124004 | 65 | 202 | 5.0 | 9.0 | 0.00 | 0.00 | 0.00 | 66 | 1010.7 |
| 20260505123004 | 64 | 199 | 6.0 | 10.0 | 0.00 | 0.00 | 0.00 | 66 | 1010.6 |
| 20260505122004 | 63 | 221 | 3.0 | 9.0 | 0.00 | 0.00 | 0.00 | 70 | 1010.6 |
| 20260505121004 | 61 | 238 | 2.0 | 5.0 | 0.00 | 0.00 | 0.00 | 72 | 1010.5 |
| 20260505120025 | 60 | 232 | 1.0 | 4.0 | 0.00 | 0.00 | 0.00 | 73 | 1010.3 |
| 20260505115004 | 60 | 265 | 1.0 | 4.0 | 0.00 | 0.00 | 0.00 | 73 | 1010.3 |
| 20260505114005 | 59 | 277 | 1.0 | 2.0 | 0.00 | 0.00 | 0.00 | 75 | 1010.3 |
| 20260505113025 | 58 | 277 | 0.0 | 2.0 | 0.00 | 0.00 | 0.00 | 78 | 1010.1 |
| 20260505112025 | 57 | 277 | 0.0 | 2.0 | 0.00 | 0.00 | 0.00 | 80 | 1010.1 |
| 20260505111004 | 55 | 277 | 0.0 | 3.0 | 0.00 | 0.00 | 0.00 | 82 | 1010.1 |
| 20260505102025 | 55 | 160 | 0.0 | 2.0 | 0.00 | 0.00 | 0.00 | 77 | 1009.6 |
| 20260505101004 | 55 | 172 | 2.0 | 6.0 | 0.00 | 0.00 | 0.00 | 76 | 1009.4 |
| 20260505100004 | 55 | 166 | 3.0 | 4.0 | 0.00 | 0.00 | 0.00 | 79 | 1009.4 |
| 20260505095004 | 55 | 162 | 3.0 | 5.0 | 0.00 | 0.00 | 0.00 | 76 | 1009.4 |
| 20260505094004 | 55 | 162 | 2.0 | 5.0 | 0.00 | 0.00 | 0.00 | 76 | 1009.5 |
| 20260505093004 | 56 | 0 | 0.0 | 0.0 | 0.00 | 0.00 | 0.00 | 75 | 1009.5 |
| 20260505092004 | 57 | 0 | 0.0 | 0.0 | 0.00 | 0.00 | 0.00 | 73 | 1009.4 |
| 20260505091025 | 57 | 162 | 1.0 | 5.0 | 0.00 | 0.00 | 0.00 | 72 | 1009.3 |
| 20260505090025 | 57 | 171 | 4.0 | 7.0 | 0.00 | 0.00 | 0.00 | 72 | 1009.2 |
| 20260505085004 | 57 | 192 | 2.0 | 3.0 | 0.00 | 0.00 | 0.00 | 71 | 1009.2 |
| 20260505084025 | 57 | 192 | 2.0 | 3.0 | 0.00 | 0.00 | 0.00 | 71 | 1009.2 |
| 20260505083004 | 58 | 193 | 2.0 | 4.0 | 0.00 | 0.00 | 0.00 | 71 | 1009.1 |
| 20260505082004 | 58 | 195 | 1.0 | 3.0 | 0.00 | 0.00 | 0.00 | 70 | 1009.1 |
| 20260505081025 | 58 | 195 | 2.0 | 3.0 | 0.00 | 0.00 | 0.00 | 69 | 1009.0 |
| 20260505080025 | 59 | 195 | 2.0 | 3.0 | 0.00 | 0.00 | 0.00 | 69 | 1009.0 |
| 20260505075004 | 60 | 195 | 2.0 | 4.0 | 0.00 | 0.00 | 0.00 | 68 | 1009.0 |
| 20260505074004 | 60 | 183 | 3.0 | 5.0 | 0.00 | 0.00 | 0.00 | 68 | 1008.8 |
| 20260505073004 | 60 | 183 | 2.0 | 4.0 | 0.00 | 0.00 | 0.00 | 68 | 1008.7 |
| 20260505072025 | 60 | 183 | 0.0 | 3.0 | 0.00 | 0.00 | 0.00 | 67 | 1008.8 |
| 20260505071004 | 60 | 183 | 2.0 | 5.0 | 0.00 | 0.00 | 0.00 | 66 | 1008.8 |
| 20260505070004 | 61 | 183 | 2.0 | 4.0 | 0.00 | 0.00 | 0.00 | 65 | 1008.8 |
| 20260505065004 | 61 | 183 | 3.0 | 5.0 | 0.00 | 0.00 | 0.00 | 65 | 1008.8 |
| 20260505064004 | 61 | 182 | 3.0 | 6.0 | 0.00 | 0.00 | 0.00 | 65 | 1008.9 |
| 20260505063005 | 61 | 170 | 1.0 | 4.0 | 0.00 | 0.00 | 0.00 | 65 | 1009.1 |
| 20260505062005 | 62 | 166 | 2.0 | 3.0 | 0.00 | 0.00 | 0.00 | 63 | 1009.1 |
| 20260505061004 | 62 | 165 | 2.0 | 5.0 | 0.00 | 0.00 | 0.00 | 61 | 1009.1 |
| 20260505060025 | 62 | 167 | 3.0 | 6.0 | 0.00 | 0.00 | 0.00 | 60 | 1009.1 |
| 20260505055004 | 61 | 180 | 2.0 | 5.0 | 0.00 | 0.00 | 0.00 | 61 | 1009.1 |
| 20260505054025 | 61 | 194 | 2.0 | 5.0 | 0.00 | 0.00 | 0.00 | 62 | 1009.1 |
| 20260505053004 | 61 | 216 | 1.0 | 4.0 | 0.00 | 0.00 | 0.00 | 64 | 1009.2 |
| 20260505052025 | 60 | 218 | 3.0 | 7.0 | 0.00 | 0.00 | 0.00 | 64 | 1009.2 |
| 20260505051025 | 60 | 211 | 4.0 | 7.0 | 0.00 | 0.00 | 0.00 | 64 | 1009.1 |
| 20260505041004 | 61 | 185 | 3.0 | 4.0 | 0.00 | 0.00 | 0.00 | 59 | 1008.9 |
| 20260505040004 | 61 | 187 | 4.0 | 6.0 | 0.00 | 0.00 | 0.00 | 59 | 1008.8 |
| 20260505035005 | 61 | 211 | 2.0 | 5.0 | 0.00 | 0.00 | 0.00 | 58 | 1008.8 |
| 20260505034004 | 62 | 212 | 2.0 | 5.0 | 0.00 | 0.00 | 0.00 | 57 | 1008.8 |
| 20260505033025 | 62 | 205 | 3.0 | 5.0 | 0.00 | 0.00 | 0.00 | 56 | 1008.8 |
| 20260505032004 | 63 | 222 | 2.0 | 5.0 | 0.00 | 0.00 | 0.00 | 54 | 1008.8 |
| 20260505031004 | 64 | 194 | 3.0 | 5.0 | 0.00 | 0.00 | 0.00 | 53 | 1008.8 |
| 20260505030004 | 65 | 185 | 6.0 | 14.0 | 0.00 | 0.00 | 0.00 | 52 | 1008.7 |
| 20260505025004 | 65 | 171 | 7.0 | 17.0 | 0.00 | 0.00 | 0.00 | 51 | 1008.5 |
| 20260505024004 | 65 | 163 | 9.0 | 18.0 | 0.00 | 0.00 | 0.00 | 51 | 1008.4 |
| 20260505023004 | 65 | 160 | 9.0 | 17.0 | 0.00 | 0.00 | 0.00 | 51 | 1008.4 |
| 20260505022004 | 65 | 160 | 9.0 | 17.0 | 0.00 | 0.00 | 0.00 | 50 | 1008.3 |
| 20260505021004 | 65 | 164 | 10.0 | 16.0 | 0.00 | 0.00 | 0.00 | 50 | 1008.5 |
| 20260505020004 | 65 | 164 | 9.0 | 17.0 | 0.00 | 0.00 | 0.00 | 50 | 1008.5 |
| 20260505015004 | 65 | 160 | 9.0 | 16.0 | 0.00 | 0.00 | 0.00 | 50 | 1008.4 |
| 20260505014004 | 66 | 164 | 8.0 | 16.0 | 0.00 | 0.00 | 0.00 | 49 | 1008.6 |
| 20260505013004 | 66 | 167 | 6.0 | 12.0 | 0.00 | 0.00 | 0.00 | 49 | 1008.7 |
| 20260505012025 | 66 | 162 | 6.0 | 13.0 | 0.00 | 0.00 | 0.00 | 49 | 1008.6 |
| 20260505011003 | 66 | 162 | 6.0 | 12.0 | 0.00 | 0.00 | 0.00 | 48 | 1008.5 |
| 20260505010004 | 67 | 162 | 8.0 | 16.0 | 0.00 | 0.00 | 0.00 | 47 | 1008.3 |
| 20260505005004 | 67 | 163 | 9.0 | 16.0 | 0.00 | 0.00 | 0.00 | 47 | 1008.2 |
| 20260505004004 | 68 | 161 | 9.0 | 20.0 | 0.00 | 0.00 | 0.00 | 46 | 1008.1 |
| 20260505003004 | 68 | 162 | 9.0 | 17.0 | 0.00 | 0.00 | 0.00 | 46 | 1008.1 |
| 20260505002004 | 69 | 158 | 8.0 | 17.0 | 0.00 | 0.00 | 0.00 | 45 | 1008.0 |
| 20260505001004 | 70 | 154 | 7.0 | 14.0 | 0.00 | 0.00 | 0.00 | 43 | 1008.0 |
| 20260505000004 | 71 | 177 | 6.0 | 13.0 | 0.00 | 0.00 | 0.00 | 41 | 1007.9 |
| 20260504235004 | 71 | 187 | 7.0 | 13.0 | 0.00 | 0.00 | 0.00 | 42 | 1007.7 |
| 20260504234025 | 71 | 193 | 9.0 | 17.0 | 0.00 | 0.00 | 0.00 | 41 | 1007.7 |
| 20260504233025 | 72 | 195 | 11.0 | 20.0 | 0.00 | 0.00 | 0.00 | 41 | 1007.6 |
| 20260504232003 | 72 | 195 | 11.0 | 19.0 | 0.00 | 0.00 | 0.00 | 41 | 1007.6 |
| 20260504231004 | 72 | 196 | 11.0 | 19.0 | 0.00 | 0.00 | 0.00 | 40 | 1007.6 |
| 20260504230004 | 72 | 198 | 11.0 | 18.0 | 0.00 | 0.00 | 0.00 | 40 | 1007.7 |
| 20260504225004 | 73 | 199 | 14.0 | 22.0 | 0.00 | 0.00 | 0.00 | 39 | 1007.6 |
| 20260504224025 | 73 | 195 | 14.0 | 23.0 | 0.00 | 0.00 | 0.00 | 39 | 1007.7 |
| 20260504223004 | 73 | 193 | 15.0 | 24.0 | 0.00 | 0.00 | 0.00 | 38 | 1007.7 |
| 20260504222004 | 74 | 192 | 15.0 | 23.0 | 0.00 | 0.00 | 0.00 | 38 | 1007.8 |
| 20260504221004 | 74 | 195 | 13.0 | 22.0 | 0.00 | 0.00 | 0.00 | 37 | 1007.7 |
| 20260504220004 | 74 | 203 | 14.0 | 23.0 | 0.00 | 0.00 | 0.00 | 38 | 1007.8 |
| 20260504215004 | 74 | 191 | 12.0 | 20.0 | 0.00 | 0.00 | 0.00 | 38 | 1007.8 |
| 20260504214003 | 74 | 200 | 13.0 | 21.0 | 0.00 | 0.00 | 0.00 | 37 | 1007.9 |
| 20260504213004 | 74 | 191 | 14.0 | 22.0 | 0.00 | 0.00 | 0.00 | 37 | 1007.8 |
| 20260504212004 | 74 | 197 | 12.0 | 19.0 | 0.00 | 0.00 | 0.00 | 37 | 1007.8 |
| 20260504211025 | 74 | 194 | 13.0 | 23.0 | 0.00 | 0.00 | 0.00 | 38 | 1007.9 |
| 20260504210004 | 74 | 201 | 14.0 | 24.0 | 0.00 | 0.00 | 0.00 | 37 | 1007.9 |
| 20260504205004 | 74 | 201 | 12.0 | 23.0 | 0.00 | 0.00 | 0.00 | 38 | 1007.9 |
| 20260504204004 | 74 | 201 | 13.0 | 23.0 | 0.00 | 0.00 | 0.00 | 37 | 1007.9 |
| 20260504203025 | 74 | 202 | 11.0 | 22.0 | 0.00 | 0.00 | 0.00 | 36 | 1008.0 |
| 20260504202003 | 74 | 197 | 14.0 | 25.0 | 0.00 | 0.00 | 0.00 | 36 | 1008.3 |
| 20260504201003 | 74 | 192 | 14.0 | 23.0 | 0.00 | 0.00 | 0.00 | 39 | 1008.3 |
| 20260504200024 | 74 | 204 | 12.0 | 21.0 | 0.00 | 0.00 | 0.00 | 38 | 1008.6 |
| 20260504195004 | 74 | 208 | 12.0 | 25.0 | 0.00 | 0.00 | 0.00 | 37 | 1008.7 |
| 20260504194003 | 74 | 204 | 13.0 | 22.0 | 0.00 | 0.00 | 0.00 | 38 | 1008.8 |
| 20260504193004 | 74 | 210 | 13.0 | 23.0 | 0.00 | 0.00 | 0.00 | 38 | 1009.0 |
| 20260504192005 | 74 | 201 | 13.0 | 23.0 | 0.00 | 0.00 | 0.00 | 37 | 1009.0 |
| 20260504191003 | 74 | 218 | 10.0 | 21.0 | 0.00 | 0.00 | 0.00 | 39 | 1009.1 |
| 20260504190005 | 74 | 210 | 11.0 | 21.0 | 0.00 | 0.00 | 0.00 | 38 | 1009.3 |
| 20260504185005 | 73 | 215 | 9.0 | 18.0 | 0.00 | 0.00 | 0.00 | 38 | 1009.6 |
| 20260504184004 | 73 | 199 | 11.0 | 19.0 | 0.00 | 0.00 | 0.00 | 37 | 1009.6 |
| 20260504183004 | 74 | 223 | 9.0 | 17.0 | 0.00 | 0.00 | 0.00 | 42 | 1009.7 |
| 20260504182004 | 73 | 212 | 9.0 | 18.0 | 0.00 | 0.00 | 0.00 | 41 | 1009.9 |
| 20260504181003 | 72 | 200 | 12.0 | 26.0 | 0.00 | 0.00 | 0.00 | 38 | 1010.0 |
| 20260504180004 | 72 | 203 | 12.0 | 25.0 | 0.00 | 0.00 | 0.00 | 39 | 1010.2 |
| 20260504175004 | 71 | 197 | 10.0 | 20.0 | 0.00 | 0.00 | 0.00 | 37 | 1010.3 |
| 20260504174004 | 71 | 194 | 10.0 | 19.0 | 0.00 | 0.00 | 0.00 | 42 | 1010.3 |
| 20260504173003 | 71 | 205 | 10.0 | 20.0 | 0.00 | 0.00 | 0.00 | 37 | 1010.5 |
| 20260504172004 | 71 | 222 | 9.0 | 25.0 | 0.00 | 0.00 | 0.00 | 41 | 1010.7 |
| 20260504171003 | 70 | 205 | 10.0 | 17.0 | 0.00 | 0.00 | 0.00 | 49 | 1010.9 |